Change the Weather History Date:

Wednesday, March 26, 2014

  Actual Average Record
Temperature  
Mean Temperature 52 °F 64 °F  
Max Temperature 62 °F 75 °F 85 °F (2012)
Min Temperature 41 °F 53 °F 34 °F (1969)
Degree Days  
Heating Degree Days 13 3  
Month to date heating degree days 196 132  
Since 1 July heating degree days 1720 1348  
Cooling Degree Days 0 2  
Month to date cooling degree days 16 37  
Year to date cooling degree days 34 68  
Growing Degree Days 2 (Base 50)    
Moisture  
Dew Point 36 °F    
Average Humidity 61    
Maximum Humidity 83    
Minimum Humidity 39    
Precipitation  
Precipitation 0.04 in 0.13 in 3.87 in (2009)
Month to date precipitation 1.20 3.16  
Year to date precipitation 9.54 12.57  
Sea Level Pressure  
Sea Level Pressure 30.25 in    
Wind  
Wind Speed 9 mph (ESE)    
Max Wind Speed 24 mph    
Max Gust Speed 31 mph    
Visibility 10 miles    
Events Rain    
T = Trace of Precipitation, MM = Missing Value Source: NWS Daily Summary

Daily Weather History Graph

Daily Weather History Graph

Search for Another Location

Airport or City:

Trip Planner

Search our weather history database for the weather conditions in past years. The results will help you decide how hot, cold, wet, or windy it might be!

Date:

Astronomy

Mar. 26, 2014 Rise Set
Actual Time 7:04 AM CDT 7:22 PM CDT
Civil Twilight 6:40 AM CDT 7:46 PM CDT
Nautical Twilight 6:12 AM CDT 8:14 PM CDT
Astronomical Twilight 5:43 AM CDT 8:43 PM CDT
Moon 3:54 AM CDT (3/26) 3:18 PM CDT (3/26)
Length of Visible Light 13h 06m
Length of Day
12h 18m
Waning Crescent, 21% of the Moon is Illuminated
Mar 26
Waning Crescent
Mar 30
New
Apr 7
First Quarter
Apr 15
Full
Apr 22
Last Quarter

Hourly Weather History & Observations

Time (CDT) Temp. Windchill Dew Point Humidity Pressure Visibility Wind Dir Wind Speed Gust Speed Precip Events Conditions
12:53 AM 51.1 °F - 32.0 °F 48% 30.27 in 10.0 mi ENE 9.2 mph - N/A   Clear
1:53 AM 48.9 °F - 32.0 °F 52% 30.26 in 10.0 mi ENE 8.1 mph - N/A   Clear
2:53 AM 46.9 °F - 30.0 °F 52% 30.27 in 10.0 mi East 4.6 mph - N/A   Clear
3:53 AM 46.0 °F 42.5 °F 28.9 °F 51% 30.26 in 10.0 mi East 6.9 mph - N/A   Clear
4:53 AM 46.0 °F 43.1 °F 30.0 °F 54% 30.25 in 10.0 mi East 5.8 mph - N/A   Clear
5:53 AM 45.0 °F 41.2 °F 32.0 °F 60% 30.27 in 10.0 mi ENE 6.9 mph - N/A   Clear
6:53 AM 44.1 °F 40.1 °F 33.1 °F 65% 30.29 in 10.0 mi East 6.9 mph - N/A   Clear
7:53 AM 45.0 °F - 37.9 °F 76% 30.33 in 10.0 mi Calm Calm - N/A   Clear
8:53 AM 48.9 °F - 37.9 °F 66% 30.34 in 10.0 mi East 5.8 mph - N/A   Clear
9:53 AM 52.0 °F - 36.0 °F 54% 30.35 in 10.0 mi ESE 10.4 mph - N/A   Clear
10:53 AM 54.0 °F - 33.1 °F 45% 30.35 in 10.0 mi ESE 10.4 mph - N/A   Clear
11:53 AM 54.0 °F - 32.0 °F 43% 30.34 in 10.0 mi ESE 15.0 mph - N/A   Clear
12:53 PM 55.9 °F - 33.1 °F 42% 30.32 in 10.0 mi SE 15.0 mph - N/A   Clear
1:53 PM 61.0 °F - 36.0 °F 39% 30.26 in 10.0 mi ESE 16.1 mph - N/A   Clear
2:53 PM 61.0 °F - 35.1 °F 38% 30.21 in 10.0 mi East 18.4 mph 25.3 mph 0.00 in   Clear
3:53 PM 60.1 °F - 35.1 °F 39% 30.19 in 10.0 mi East 12.7 mph - N/A   Clear
4:53 PM 59.0 °F - 35.1 °F 41% 30.18 in 10.0 mi East 9.2 mph - N/A   Overcast
5:53 PM 57.9 °F - 37.0 °F 46% 30.19 in 10.0 mi ESE 8.1 mph - N/A   Overcast
6:53 PM 57.0 °F - 39.0 °F 51% 30.22 in 10.0 mi South 8.1 mph - N/A   Overcast
7:53 PM 53.1 °F - 41.0 °F 64% 30.21 in 10.0 mi SSE 10.4 mph - 0.00 in Rain Light Rain
8:53 PM 51.1 °F - 43.0 °F 74% 30.17 in 9.0 mi SE 15.0 mph - 0.04 in Rain Light Rain
9:53 PM 51.1 °F - 44.1 °F 77% 30.17 in 10.0 mi ESE 11.5 mph - 0.00 in   Overcast
10:53 PM 51.1 °F - 45.0 °F 80% 30.17 in 10.0 mi East 6.9 mph - N/A   Overcast
11:53 PM 51.1 °F - 46.0 °F 83% 30.15 in 10.0 mi East 6.9 mph - N/A   Overcast